Location: Cactus School
(34.5700°N, 118.0931°W)
Time: 13:47:54
(UTC-08:00)

A-11 Canister half - Pass Details

Date: 28 November 2019
Orbit: 1515 x 1685 km, 47.2° (Epoch: 10 December)

Event Time Altitude Azimuth Distance (km) Brightness Sun altitude
Rises 18:36:53 0° 293° (WNW) 4,899 12.5 -23.2°
Reaches altitude 10° 18:40:19 10° 300° (WNW) 3,927 11.8 -23.9°
Maximum altitude 18:49:47 42° 10° (N) 2,259 9.7 -25.8°
Enters shadow 18:52:44 35° 45° (NE) 2,476 9.6 -26.4°
